Location: Caltech
(34.1382°N, 118.1253°W)
Time: 13:24:29
(UTC-07:00)

Uribyol 2 - Visible Passes

Search period start: 24 July 2016 00:00
Search period end: 03 August 2016 00:00
Orbit: 782 x 797 km, 98.7° (Epoch: 23 July)

Date Brightness Start Highest point End Pass type
(mag) Time Alt. Az. Time Alt. Az. Time Alt. Az.
24 Jul ? 03:33:48 10° NNE 03:38:57 64° ESE 03:40:26 44° SSE visible
24 Jul ? 05:15:22 10° NW 05:17:47 13° WNW 05:20:12 10° W visible
25 Jul ? 03:04:39 10° NE 03:09:14 31° E 03:10:23 28° ESE visible
25 Jul ? 04:44:17 10° NNW 04:48:30 26° WNW 04:51:05 17° WSW visible
26 Jul ? 02:36:23 10° ENE 02:39:24 16° E 02:40:20 15° ESE visible
26 Jul ? 04:14:05 10° N 04:19:05 50° WNW 04:21:03 33° SW visible
27 Jul ? 03:44:21 10° NNE 03:49:31 81° ESE 03:51:00 48° S visible
27 Jul ? 05:27:25 10° NW 05:28:13 10° WNW 05:29:02 10° WNW visible
28 Jul ? 03:15:01 10° NNE 03:19:51 40° E 03:20:57 35° SE visible
28 Jul ? 04:55:14 10° NNW 04:58:59 21° WNW 05:01:39 14° WSW visible
29 Jul ? 02:46:20 10° NE 02:50:04 20° E 02:50:53 19° ESE visible
29 Jul ? 04:24:49 10° N 04:29:36 39° WNW 04:31:36 28° WSW visible
30 Jul ? 03:54:55 10° N 04:00:06 80° WNW 04:01:33 48° SSW visible
31 Jul ? 03:25:26 10° NNE 03:30:28 51° E 03:31:29 44° SE visible
31 Jul ? 05:06:19 10° NNW 05:09:27 16° WNW 05:12:12 11° W visible
01 Aug ? 02:56:29 10° NE 03:00:44 25° E 03:01:26 25° ESE visible
01 Aug ? 04:35:36 10° N 04:40:07 31° WNW 04:42:08 24° WSW visible
02 Aug ? 02:28:47 10° ENE 02:30:52 12° E 02:31:22 12° E visible
02 Aug ? 04:05:33 10° N 04:10:39 62° WNW 04:12:05 44° SW visible
